.
WxDataArchive / Data Records for 2009-01-16
2009-01-15 January 2009 2009-01-17

Data Records for Friday, 16 January 2009

Time	Temp	Chill	HIndex	Humid	Dewpt	 Wind 	HiWind	WindDir	Rain 	Barom 
-----	----	-----	------	-----	-----	------	------	-------	-----	----- 
00:00	-13.0	-13.0	-13.0	64	-21.7	2	6	248	0.00	30.716 
00:05	-13.3	-13.3	-13.3	64	-21.9	2	5	248	0.00	30.715 
00:10	-13.3	-13.3	-13.3	64	-21.9	3	9	248	0.00	30.713 
00:15	-13.3	-13.3	-13.3	64	-21.9	3	7	270	0.00	30.711 
00:20	-13.3	-13.3	-13.3	64	-21.9	3	7	248	0.00	30.711 
00:25	-13.3	-13.3	-13.3	64	-21.9	2	7	270	0.00	30.710 
00:30	-13.3	-13.3	-13.3	64	-21.9	3	13	248	0.00	30.706 
00:35	-13.5	-13.5	-13.5	64	-22.1	2	9	270	0.00	30.709 
00:40	-13.5	-13.5	-13.5	64	-22.1	3	10	248	0.00	30.710 
00:45	-13.5	-13.5	-13.5	64	-22.1	2	5	248	0.00	30.709 
00:50	-13.5	-13.5	-13.5	64	-22.1	2	5	248	0.00	30.710 
00:55	-13.5	-13.5	-13.5	64	-22.1	2	7	248	0.00	30.709 
01:00	-13.5	-13.5	-13.5	64	-22.1	2	9	270	0.00	30.706 
01:05	-13.8	-13.8	-13.8	64	-22.4	2	7	270	0.00	30.708 
01:10	-13.8	-13.8	-13.8	64	-22.4	2	6	270	0.00	30.705 
01:15	-13.8	-13.8	-13.8	64	-22.4	2	5	270	0.00	30.704 
01:20	-13.8	-13.8	-13.8	64	-22.4	2	4	270	0.00	30.701 
01:25	-13.8	-13.8	-13.8	64	-22.4	2	5	270	0.00	30.701 
01:30	-13.8	-13.8	-13.8	64	-22.4	2	10	248	0.00	30.699 
01:35	-13.8	-13.8	-13.8	65	-22.1	2	6	270	0.00	30.703 
01:40	-13.8	-13.8	-13.8	65	-22.1	2	5	270	0.00	30.705 
01:45	-13.8	-13.8	-13.8	65	-22.1	2	4	270	0.00	30.702 
01:50	-13.8	-13.8	-13.8	65	-22.1	2	5	248	0.00	30.705 
01:55	-13.5	-13.5	-13.5	65	-21.8	2	6	270	0.00	30.707 
02:00	-13.5	-13.5	-13.5	65	-21.8	3	7	248	0.00	30.703 
02:05	-13.5	-13.5	-13.5	65	-21.8	2	10	248	0.00	30.704 
02:10	-13.5	-13.5	-13.5	65	-21.8	2	6	248	0.00	30.709 
02:15	-13.5	-13.5	-13.5	65	-21.8	3	10	248	0.00	30.706 
02:20	-13.5	-13.5	-13.5	65	-21.8	2	5	248	0.00	30.705 
02:25	-13.5	-13.5	-13.5	65	-21.8	2	4	248	0.00	30.708 
02:30	-13.5	-13.5	-13.5	65	-21.8	2	6	248	0.00	30.708 
02:35	-13.8	-13.8	-13.8	65	-22.1	2	7	248	0.00	30.708 
02:40	-13.8	-13.8	-13.8	65	-22.1	2	7	248	0.00	30.709 
02:45	-13.8	-13.8	-13.8	65	-22.1	2	6	248	0.00	30.712 
02:50	-13.8	-13.8	-13.8	65	-22.1	2	5	248	0.00	30.712 
02:55	-13.8	-13.8	-13.8	65	-22.1	2	5	248	0.00	30.711 
03:00	-13.8	-13.8	-13.8	65	-22.1	2	9	248	0.00	30.713 
03:05	-13.8	-13.8	-13.8	65	-22.1	3	7	270	0.00	30.711 
03:10	-13.8	-13.8	-13.8	65	-22.1	2	7	248	0.00	30.711 
03:15	-13.8	-13.8	-13.8	65	-22.1	2	5	248	0.00	30.715 
03:20	-13.8	-13.8	-13.8	65	-22.1	2	6	248	0.00	30.715 
03:25	-13.8	-13.8	-13.8	65	-22.1	2	5	270	0.00	30.716 
03:30	-13.8	-13.8	-13.8	65	-22.1	1	4	248	0.00	30.717 
03:35	-14.0	-14.0	-14.0	65	-22.3	1	3	248	0.00	30.717 
03:40	-14.0	-14.0	-14.0	65	-22.3	2	6	248	0.00	30.717 
03:45	-13.8	-13.8	-13.8	65	-22.1	2	4	248	0.00	30.718 
03:50	-14.0	-14.0	-14.0	65	-22.3	2	4	248	0.00	30.719 
03:55	-14.0	-14.0	-14.0	65	-22.3	2	4	248	0.00	30.718 
04:00	-14.0	-14.0	-14.0	66	-22.0	2	7	248	0.00	30.718 
04:05	-13.8	-13.8	-13.8	66	-21.8	3	11	248	0.00	30.724 
04:10	-13.8	-13.8	-13.8	66	-21.8	2	6	248	0.00	30.724 
04:15	-13.8	-13.8	-13.8	66	-21.8	2	7	248	0.00	30.725 
04:20	-13.8	-13.8	-13.8	66	-21.8	2	6	248	0.00	30.725 
04:25	-13.8	-13.8	-13.8	66	-21.8	2	7	248	0.00	30.722 
04:30	-13.8	-13.8	-13.8	66	-21.8	2	5	248	0.00	30.722 
04:35	-13.8	-13.8	-13.8	66	-21.8	2	5	248	0.00	30.723 
04:40	-14.0	-14.0	-14.0	66	-22.0	2	4	248	0.00	30.727 
04:45	-14.0	-14.0	-14.0	66	-22.0	2	7	248	0.00	30.727 
04:50	-14.0	-14.0	-14.0	66	-22.0	2	6	248	0.00	30.732 
04:55	-14.3	-14.3	-14.3	66	-22.3	2	5	248	0.00	30.733 
05:00	-14.3	-14.3	-14.3	66	-22.3	2	6	248	0.00	30.735 
05:05	-14.3	-14.3	-14.3	67	-22.0	2	5	270	0.00	30.738 
05:10	-14.3	-14.3	-14.3	67	-22.0	2	7	248	0.00	30.737 
05:15	-14.3	-14.3	-14.3	67	-22.0	2	6	248	0.00	30.738 
05:20	-14.3	-14.3	-14.3	67	-22.0	3	10	248	0.00	30.738 
05:25	-14.3	-14.3	-14.3	67	-22.0	3	11	248	0.00	30.739 
05:30	-14.3	-14.3	-14.3	67	-22.0	2	4	248	0.00	30.742 
05:35	-14.3	-14.3	-14.3	67	-22.0	2	5	248	0.00	30.742 
05:40	-14.3	-14.3	-14.3	67	-22.0	2	4	248	0.00	30.747 
05:45	-14.0	-14.0	-14.0	67	-21.7	2	5	248	0.00	30.748 
05:50	-14.0	-14.0	-14.0	67	-21.7	2	7	248	0.00	30.749 
05:55	-14.3	-14.3	-14.3	67	-22.0	2	6	248	0.00	30.751 
06:00	-14.3	-14.3	-14.3	67	-22.0	2	5	225	0.00	30.752 
06:05	-14.3	-14.3	-14.3	67	-22.0	2	5	248	0.00	30.755 
06:10	-14.3	-14.3	-14.3	67	-22.0	2	4	270	0.00	30.754 
06:15	-14.3	-14.3	-14.3	67	-22.0	2	5	248	0.00	30.755 
06:20	-14.3	-14.3	-14.3	67	-22.0	2	9	248	0.00	30.756 
06:25	-14.3	-14.3	-14.3	67	-22.0	2	6	248	0.00	30.758 
06:30	-14.3	-14.3	-14.3	67	-22.0	2	5	248	0.00	30.758 
06:35	-14.3	-14.3	-14.3	67	-22.0	2	7	248	0.00	30.759 
06:40	-14.3	-14.3	-14.3	67	-22.0	2	5	248	0.00	30.760 
06:45	-14.3	-14.3	-14.3	67	-22.0	2	5	248	0.00	30.760 
06:50	-14.3	-14.3	-14.3	67	-22.0	2	7	248	0.00	30.760 
06:55	-14.3	-14.3	-14.3	67	-22.0	2	5	248	0.00	30.759 
07:00	-14.3	-14.3	-14.3	67	-22.0	1	6	248	0.00	30.761 
07:05	-14.3	-14.3	-14.3	67	-22.0	2	6	248	0.00	30.764 
07:10	-14.3	-14.3	-14.3	67	-22.0	2	5	248	0.00	30.763 
07:15	-14.3	-14.3	-14.3	67	-22.0	2	4	248	0.00	30.765 
07:20	-14.3	-14.3	-14.3	67	-22.0	1	3	248	0.00	30.768 
07:25	-14.3	-14.3	-14.3	67	-22.0	1	6	248	0.00	30.766 
07:30	-14.3	-14.3	-14.3	67	-22.0	1	4	248	0.00	30.768 
07:35	-14.3	-14.3	-14.3	67	-22.0	2	5	248	0.00	30.770 
07:40	-14.3	-14.3	-14.3	67	-22.0	1	5	248	0.00	30.773 
07:45	-14.3	-14.3	-14.3	67	-22.0	1	2	248	0.00	30.772 
07:50	-14.3	-14.3	-14.3	67	-22.0	1	3	270	0.00	30.773 
07:55	-14.3	-14.3	-14.3	67	-22.0	2	5	248	0.00	30.773 
08:00	-14.3	-14.3	-14.3	67	-22.0	2	7	248	0.00	30.774 
08:05	-14.3	-14.3	-14.3	67	-22.0	2	6	270	0.00	30.778 
08:10	-14.3	-14.3	-14.3	67	-22.0	1	4	248	0.00	30.777 
08:15	-14.3	-14.3	-14.3	67	-22.0	1	4	248	0.00	30.779 
08:20	-14.3	-14.3	-14.3	67	-22.0	2	9	248	0.00	30.778 
08:25	-14.3	-14.3	-14.3	67	-22.0	2	5	248	0.00	30.779 
08:30	-14.0	-14.0	-14.0	67	-21.7	1	4	248	0.00	30.781 
08:35	-14.0	-14.0	-14.0	68	-21.5	1	4	248	0.00	30.783 
08:40	-13.8	-13.8	-13.8	67	-21.5	1	4	248	0.00	30.784 
08:45	-13.5	-13.5	-13.5	67	-21.3	2	6	248	0.00	30.784 
08:50	-13.5	-13.5	-13.5	67	-21.3	2	9	248	0.00	30.785 
08:55	-13.3	-13.3	-13.3	67	-21.1	2	7	248	0.00	30.787 
09:00	-13.3	-13.3	-13.3	67	-21.1	2	6	248	0.00	30.787 
09:05	-13.0	-13.0	-13.0	67	-20.8	1	4	248	0.00	30.790 
09:10	-12.8	-12.8	-12.8	67	-20.6	2	6	248	0.00	30.791 
09:15	-12.5	-12.5	-12.5	67	-20.3	2	10	248	0.00	30.791 
09:20	-12.2	-12.2	-12.2	67	-20.0	2	7	248	0.00	30.792 
09:25	-12.0	-12.0	-12.0	66	-20.1	2	4	248	0.00	30.791 
09:30	-11.7	-11.7	-11.7	66	-19.8	2	4	248	0.00	30.791 
09:35	-11.2	-11.2	-11.2	66	-19.3	2	6	270	0.00	30.792 
09:40	-11.0	-11.0	-11.0	65	-19.4	2	5	270	0.00	30.795 
09:45	-10.7	-10.7	-10.7	65	-19.2	2	6	270	0.00	30.798 
09:50	-10.5	-10.5	-10.5	64	-19.3	2	3	270	0.00	30.796 
09:55	-10.0	-10.0	-10.0	64	-18.8	2	6	248	0.00	30.794 
10:00	-10.0	-10.0	-10.0	64	-18.8	3	9	270	0.00	30.796 
10:05	-9.6	-9.6	-9.6	64	-18.4	2	5	270	0.00	30.799 
10:10	-9.3	-9.3	-9.3	64	-18.1	2	6	248	0.00	30.801 
10:15	-8.9	-8.9	-8.9	64	-17.7	2	4	248	0.00	30.803 
10:20	-8.4	-8.4	-8.4	63	-17.6	2	7	248	0.00	30.805 
10:25	-8.2	-8.2	-8.2	63	-17.4	2	5	270	0.00	30.805 
10:30	-7.9	-7.9	-7.9	62	-17.4	2	5	270	0.00	30.807 
10:35	-7.7	-7.7	-7.7	62	-17.2	2	5	270	0.00	30.810 
10:40	-7.5	-7.5	-7.5	62	-17.0	2	9	248	0.00	30.815 
10:45	-7.2	-7.2	-7.2	62	-16.7	3	6	270	0.00	30.813 
10:50	-7.0	-7.0	-7.0	62	-16.5	3	9	248	0.00	30.808 
10:55	-6.8	-6.8	-6.8	62	-16.4	3	9	270	0.00	30.809 
11:00	-6.3	-6.3	-6.3	62	-15.9	2	7	248	0.00	30.809 
11:05	-5.9	-5.9	-5.9	62	-15.5	2	6	248	0.00	30.810 
11:10	-5.6	-5.6	-5.6	61	-15.5	2	5	248	0.00	30.809 
11:15	-5.0	-5.0	-5.0	61	-15.0	2	7	248	0.00	30.807 
11:20	-4.8	-4.8	-4.8	61	-14.8	2	3	270	0.00	30.813 
11:25	-4.6	-4.6	-4.6	60	-14.9	3	7	270	0.00	30.813 
11:30	-4.1	-4.1	-4.1	60	-14.4	2	3	270	0.00	30.807 
11:35	-3.9	-3.9	-3.9	60	-14.2	2	3	270	0.00	30.805 
11:40	-3.3	-3.3	-3.3	60	-13.7	1	3	270	0.00	30.802 
11:45	-3.1	-3.1	-3.1	59	-13.8	2	3	270	0.00	30.801 
11:50	-2.8	-2.8	-2.8	60	-13.2	1	4	248	0.00	30.800 
11:55	-2.4	-2.4	-2.4	59	-13.2	1	3	270	0.00	30.800 
12:00	-2.0	-2.0	-2.0	59	-12.8	1	3	248	0.00	30.797 
12:05	-1.8	-1.8	-1.8	58	-12.9	1	5	270	0.00	30.796 
12:10	-1.6	-1.6	-1.6	59	-12.4	2	5	248	0.00	30.790 
12:15	-1.2	-1.2	-1.2	58	-12.4	2	5	270	0.00	30.785 
12:20	-1.0	-1.0	-1.0	58	-12.2	2	5	248	0.00	30.784 
12:25	-0.6	-0.6	-0.6	58	-11.8	3	7	270	0.00	30.783 
12:30	-0.2	-0.2	-0.2	57	-11.8	2	4	270	0.00	30.781 
12:35	0.0	0.0	0.0	55	-12.3	3	6	248	0.00	30.781 
12:40	0.1	0.1	0.1	55	-12.2	2	6	270	0.00	30.780 
12:45	0.3	0.3	0.3	55	-12.0	2	6	248	0.00	30.778 
12:50	0.7	0.7	0.7	53	-12.4	2	5	248	0.00	30.776 
12:55	0.9	0.9	0.9	55	-11.4	2	4	248	0.00	30.774 
13:00	1.3	1.3	1.3	52	-12.2	1	3	248	0.00	30.772 
13:05	1.5	1.5	1.5	50	-12.8	2	4	270	0.00	30.771 
13:10	1.7	1.7	1.7	50	-12.6	1	3	248	0.00	30.767 
13:15	1.8	1.8	1.8	49	-12.9	1	3	248	0.00	30.765 
13:20	2.0	2.0	2.0	48	-13.1	2	6	248	0.00	30.763 
13:25	2.2	2.2	2.2	48	-12.9	2	4	248	0.00	30.762 
13:30	2.6	2.6	2.6	47	-13.0	2	4	270	0.00	30.758 
13:35	2.6	2.6	2.6	47	-13.0	2	4	270	0.00	30.756 
13:40	2.8	2.8	2.8	47	-12.8	1	3	270	0.00	30.754 
13:45	3.0	3.0	3.0	48	-12.2	1	3	270	0.00	30.758 
13:50	3.5	3.5	3.5	47	-12.2	1	3	248	0.00	30.759 
13:55	3.9	3.9	3.9	48	-11.4	1	3	248	0.00	30.759 
14:00	4.1	4.1	4.1	46	-12.0	3	7	248	0.00	30.756 
14:05	4.1	4.1	4.1	46	-12.0	2	6	248	0.00	30.753 
14:10	3.9	3.9	3.9	46	-12.2	3	6	248	0.00	30.755 
14:15	3.7	3.7	3.7	45	-12.8	2	7	248	0.00	30.751 
14:20	3.5	3.5	3.5	46	-12.6	2	5	248	0.00	30.752 
14:25	3.5	3.5	3.5	46	-12.6	2	7	248	0.00	30.751 
14:30	3.9	3.9	3.9	45	-12.7	2	5	248	0.00	30.748 
14:35	3.9	3.9	3.9	44	-13.1	2	6	248	0.00	30.746 
14:40	4.1	4.1	4.1	43	-13.4	2	5	270	0.00	30.746 
14:45	4.3	4.3	4.3	42	-13.7	2	4	248	0.00	30.745 
14:50	4.5	4.5	4.5	43	-13.0	1	4	248	0.00	30.743 
14:55	4.7	4.7	4.7	42	-13.3	2	5	248	0.00	30.744 
15:00	4.8	4.8	4.8	43	-12.7	1	3	248	0.00	30.743 
15:05	5.2	5.2	5.2	43	-12.4	1	4	248	0.00	30.740 
15:10	5.2	5.2	5.2	43	-12.4	1	4	270	0.00	30.737 
15:15	5.2	5.2	5.2	43	-12.4	1	3	248	0.00	30.734 
15:20	5.2	5.2	5.2	42	-12.8	1	3	248	0.00	30.736 
15:25	5.0	5.0	5.0	42	-13.0	2	4	270	0.00	30.736 
15:30	5.0	5.0	5.0	41	-13.5	2	4	270	0.00	30.733 
15:35	5.0	5.0	5.0	40	-14.0	2	5	248	0.00	30.731 
15:40	5.0	5.0	5.0	40	-14.0	2	5	248	0.00	30.731 
15:45	5.0	5.0	5.0	39	-14.5	2	4	248	0.00	30.731 
15:50	4.8	4.8	4.8	39	-14.7	2	5	270	0.00	30.731 
15:55	4.7	4.7	4.7	39	-14.8	2	5	248	0.00	30.734 
16:00	4.5	4.5	4.5	40	-14.4	2	4	248	0.00	30.729 
16:05	4.1	4.1	4.1	41	-14.3	1	4	270	0.00	30.731 
16:10	3.7	3.7	3.7	41	-14.7	2	4	270	0.00	30.732 
16:15	3.5	3.5	3.5	41	-14.9	2	4	270	0.00	30.731 
16:20	3.4	3.4	3.4	41	-14.9	1	5	270	0.00	30.731 
16:25	3.2	3.2	3.2	41	-15.1	2	5	248	0.00	30.731 
16:30	3.0	3.0	3.0	41	-15.3	1	3	248	0.00	30.731 
16:35	3.0	3.0	3.0	42	-14.8	1	3	248	0.00	30.729 
16:40	2.8	2.8	2.8	43	-14.6	0	2	248	0.00	30.726 
16:45	2.6	2.6	2.6	43	-14.7	0	3	248	0.00	30.727 
16:50	2.6	2.6	2.6	43	-14.7	0	2	248	0.00	30.727 
16:55	2.6	2.6	2.6	43	-14.7	1	3	248	0.00	30.728 
17:00	2.6	2.6	2.6	43	-14.7	1	3	248	0.00	30.725 
17:05	2.4	2.4	2.4	43	-14.9	1	3	248	0.00	30.727 
17:10	2.2	2.2	2.2	43	-15.1	1	4	248	0.00	30.728 
17:15	2.0	2.0	2.0	43	-15.3	1	3	248	0.00	30.725 
17:20	1.7	1.7	1.7	42	-16.0	1	3	248	0.00	30.725 
17:25	1.5	1.5	1.5	43	-15.8	0	2	248	0.00	30.724 
17:30	1.1	1.1	1.1	43	-16.1	0	2	248	0.00	30.720 
17:35	0.9	0.9	0.9	44	-15.9	0	2	248	0.00	30.718 
17:40	0.5	0.5	0.5	45	-15.8	0	3	248	0.00	30.717 
17:45	0.1	0.1	0.1	46	-15.7	0	1	248	0.00	30.718 
17:50	-0.2	-0.2	-0.2	47	-15.6	0	0	---	0.00	30.714 
17:55	-0.4	-0.4	-0.4	47	-15.8	0	0	---	0.00	30.714 
18:00	-0.8	-0.8	-0.8	49	-15.3	0	0	---	0.00	30.716 
18:05	-1.2	-1.2	-1.2	49	-15.7	0	0	---	0.00	30.717 
18:10	-1.6	-1.6	-1.6	50	-15.7	0	0	---	0.00	30.712 
18:15	-2.0	-2.0	-2.0	51	-15.6	0	0	---	0.00	30.712 
18:20	-2.6	-2.6	-2.6	52	-15.8	0	0	---	0.00	30.720 
18:25	-3.3	-3.3	-3.3	53	-16.1	0	0	---	0.00	30.717 
18:30	-3.7	-3.7	-3.7	54	-16.1	0	1	248	0.00	30.718 
18:35	-3.7	-3.7	-3.7	54	-16.1	0	1	248	0.00	30.720 
18:40	-3.9	-3.9	-3.9	55	-15.9	0	0	---	0.00	30.719 
18:45	-4.1	-4.1	-4.1	56	-15.8	0	0	---	0.00	30.718 
18:50	-4.6	-4.6	-4.6	56	-16.3	0	0	---	0.00	30.712 
18:55	-4.8	-4.8	-4.8	56	-16.4	0	0	---	0.00	30.710 
19:00	-5.0	-5.0	-5.0	56	-16.6	0	0	---	0.00	30.711 
19:05	-5.2	-5.2	-5.2	57	-16.5	0	0	---	0.00	30.716 
19:10	-5.2	-5.2	-5.2	58	-16.1	0	1	248	0.00	30.715 
19:15	-5.0	-5.0	-5.0	59	-15.6	0	1	248	0.00	30.715 
19:20	-4.6	-4.6	-4.6	60	-14.9	0	2	248	0.00	30.712 
19:25	-4.1	-4.1	-4.1	60	-14.4	0	2	248	0.00	30.707 
19:30	-3.9	-3.9	-3.9	60	-14.2	0	1	248	0.00	30.706 
19:35	-3.7	-3.7	-3.7	60	-14.0	0	1	248	0.00	30.706 
19:40	-3.9	-3.9	-3.9	60	-14.2	0	1	248	0.00	30.708 
19:45	-4.1	-4.1	-4.1	60	-14.4	0	1	248	0.00	30.704 
19:50	-4.3	-4.3	-4.3	60	-14.6	0	0	---	0.00	30.701 
19:55	-4.8	-4.8	-4.8	60	-15.1	0	0	---	0.00	30.699 
20:00	-5.4	-5.4	-5.4	61	-15.3	0	0	---	0.00	30.694 
20:05	-5.9	-5.9	-5.9	61	-15.8	0	0	---	0.00	30.694 
20:10	-6.3	-6.3	-6.3	61	-16.2	0	0	---	0.00	30.694 
20:15	-6.8	-6.8	-6.8	62	-16.4	0	0	---	0.00	30.694 
20:20	-7.2	-7.2	-7.2	62	-16.7	0	0	---	0.00	30.694 
20:25	-7.2	-7.2	-7.2	63	-16.4	0	0	---	0.00	30.694 
20:30	-7.2	-7.2	-7.2	64	-16.1	0	0	---	0.00	30.693 
20:35	-7.0	-7.0	-7.0	65	-15.6	0	1	248	0.00	30.691 
20:40	-6.8	-6.8	-6.8	66	-15.1	0	2	248	0.00	30.683 
20:45	-6.3	-6.3	-6.3	65	-14.9	0	1	248	0.00	30.682 
20:50	-6.3	-6.3	-6.3	65	-14.9	0	1	248	0.00	30.677 
20:55	-6.5	-6.5	-6.5	65	-15.1	0	1	248	0.00	30.676 
21:00	-6.8	-6.8	-6.8	65	-15.4	0	0	---	0.00	30.679 
21:05	-7.2	-7.2	-7.2	64	-16.1	0	0	---	0.00	30.673 
21:10	-7.5	-7.5	-7.5	65	-16.1	0	0	---	0.00	30.673 
21:15	-7.9	-7.9	-7.9	65	-16.5	0	0	---	0.00	30.669 
21:20	-8.2	-8.2	-8.2	65	-16.8	0	0	---	0.00	30.670 
21:25	-8.4	-8.4	-8.4	67	-16.4	0	1	248	0.00	30.664 
21:30	-8.4	-8.4	-8.4	66	-16.7	0	0	---	0.00	30.662 
21:35	-8.6	-8.6	-8.6	67	-16.6	0	0	---	0.00	30.661 
21:40	-8.9	-8.9	-8.9	67	-16.8	0	0	---	0.00	30.658 
21:45	-9.1	-9.1	-9.1	67	-17.0	0	0	---	0.00	30.659 
21:50	-9.6	-9.6	-9.6	67	-17.5	0	0	---	0.00	30.659 
21:55	-9.8	-9.8	-9.8	67	-17.7	0	0	---	0.00	30.661 
22:00	-10.3	-10.3	-10.3	67	-18.2	0	0	---	0.00	30.660 
22:05	-10.5	-10.5	-10.5	68	-18.1	0	0	---	0.00	30.654 
22:10	-10.5	-10.5	-10.5	69	-17.8	0	0	---	0.00	30.648 
22:15	-10.3	-10.3	-10.3	70	-17.3	0	1	248	0.00	30.642 
22:20	-10.3	-10.3	-10.3	70	-17.3	0	0	---	0.00	30.640 
22:25	-10.0	-10.0	-10.0	70	-17.1	0	0	---	0.00	30.641 
22:30	-10.3	-10.3	-10.3	70	-17.3	0	0	---	0.00	30.639 
22:35	-10.7	-10.7	-10.7	70	-17.7	0	0	---	0.00	30.634 
22:40	-11.0	-11.0	-11.0	70	-18.0	0	0	---	0.00	30.633 
22:45	-11.2	-11.2	-11.2	70	-18.2	0	0	---	0.00	30.627 
22:50	-11.5	-11.5	-11.5	70	-18.5	0	0	---	0.00	30.626 
22:55	-11.7	-11.7	-11.7	70	-18.7	0	0	---	0.00	30.626 
23:00	-12.0	-12.0	-12.0	70	-19.0	0	0	---	0.00	30.623 
23:05	-12.2	-12.2	-12.2	70	-19.2	0	0	---	0.00	30.620 
23:10	-12.5	-12.5	-12.5	70	-19.5	0	0	---	0.00	30.616 
23:15	-12.8	-12.8	-12.8	70	-19.8	0	0	---	0.00	30.612 
23:20	-13.0	-13.0	-13.0	70	-19.9	0	0	---	0.00	30.610 
23:25	-13.3	-13.3	-13.3	70	-20.2	0	0	---	0.00	30.609 
23:30	-13.3	-13.3	-13.3	71	-20.0	0	0	---	0.00	30.608 
23:35	-13.3	-13.3	-13.3	71	-20.0	0	0	---	0.00	30.607 
23:40	-13.3	-13.3	-13.3	72	-19.7	0	0	---	0.00	30.602 
23:45	-13.3	-13.3	-13.3	71	-20.0	0	0	---	0.00	30.599 
23:50	-13.3	-13.3	-13.3	72	-19.7	0	0	---	0.00	30.597 
23:55	-13.0	-13.0	-13.0	72	-19.4	0	0	---	0.00	30.595 

CoCoRaHS
IN-AL-39
A2 Web Hosting
Creative Commons License
GoDaddy
search engine by freefind advanced

loaded 2018-11-15 14:32:50 • last modified 2010-11-18 10:43:29
Privacy PolicyDisclaimer
• wx.awcolley.com is powered by PmWiki v.2002016 •
• all content (unless otherwise noted) © 2018 A W Colley